| time (UTC) | temp F | wind direction | speed MPH | gust MPH | rain 1hr in | rain 24hr in | rain mn in | humidity % | barometer mb |
| 20260509221255 | 59 | 270 | 1.0 | 6.0 | 0.00 | 0.00 | 0.00 | 41 | 1018.7 |
| 20260509220750 | 59 | 291 | 1.0 | 9.0 | 0.00 | 0.00 | 0.00 | 38 | 1018.5 |
| 20260509220247 | 58 | 280 | 7.0 | 11.0 | 0.00 | 0.00 | 0.00 | 39 | 1018.5 |
| 20260509215742 | 58 | 240 | 1.0 | 6.0 | 0.00 | 0.00 | 0.00 | 39 | 1018.8 |
| 20260509215239 | 60 | 350 | 3.0 | 8.0 | 0.00 | 0.00 | 0.00 | 39 | 1018.7 |
| 20260509214736 | 60 | 311 | 5.0 | 8.0 | 0.00 | 0.00 | 0.00 | 43 | 1018.8 |
| 20260509214234 | 61 | 278 | 4.0 | 11.0 | 0.00 | 0.00 | 0.00 | 42 | 1018.5 |
| 20260509213731 | 60 | 288 | 10.0 | 15.0 | 0.00 | 0.00 | 0.00 | 40 | 1018.7 |
| 20260509213226 | 58 | 276 | 5.0 | 16.0 | 0.00 | 0.00 | 0.00 | 40 | 1018.7 |
| 20260509212723 | 59 | 223 | 4.0 | 11.0 | 0.00 | 0.00 | 0.00 | 39 | 1018.5 |
| 20260509212220 | 60 | 249 | 11.0 | 13.0 | 0.00 | 0.00 | 0.00 | 39 | 1018.7 |
| 20260509211716 | 60 | 292 | 7.0 | 15.0 | 0.00 | 0.00 | 0.00 | 41 | 1018.7 |
| 20260509211213 | 59 | 280 | 2.0 | 9.0 | 0.00 | 0.00 | 0.00 | 40 | 1018.7 |
| 20260509210709 | 57 | 246 | 1.0 | 9.0 | 0.00 | 0.00 | 0.00 | 42 | 1018.5 |
| 20260509210207 | 57 | 284 | 11.0 | 12.0 | 0.00 | 0.00 | 0.00 | 38 | 1018.5 |
| 20260509205707 | 57 | 238 | 3.0 | 17.0 | 0.00 | 0.00 | 0.00 | 37 | 1018.4 |
| 20260509205206 | 58 | 227 | 9.0 | 9.0 | 0.00 | 0.00 | 0.00 | 40 | 1018.7 |
| 20260509204703 | 59 | 206 | 7.0 | 15.0 | 0.00 | 0.00 | 0.00 | 41 | 1018.5 |
| 20260509204159 | 58 | 357 | 2.0 | 9.0 | 0.00 | 0.00 | 0.00 | 39 | 1018.7 |
| 20260509203655 | 60 | 276 | 5.0 | 9.0 | 0.00 | 0.00 | 0.00 | 38 | 1018.7 |
| 20260509203154 | 58 | 0 | 2.0 | 9.0 | 0.00 | 0.00 | 0.00 | 40 | 1018.7 |
| 20260509202649 | 58 | 343 | 3.0 | 13.0 | 0.00 | 0.00 | 0.00 | 45 | 1018.7 |
| 20260509202144 | 56 | 257 | 4.0 | 10.0 | 0.00 | 0.00 | 0.00 | 44 | 1018.5 |
| 20260509201639 | 59 | 315 | 7.0 | 22.0 | 0.00 | 0.00 | 0.00 | 39 | 1018.4 |
| 20260509201137 | 58 | 229 | 8.0 | 10.0 | 0.00 | 0.00 | 0.00 | 38 | 1018.5 |
| 20260509200633 | 57 | 240 | 8.0 | 8.0 | 0.00 | 0.00 | 0.00 | 41 | 1018.7 |
| 20260509200128 | 59 | 255 | 6.0 | 12.0 | 0.00 | 0.00 | 0.00 | 41 | 1018.7 |
| 20260509195624 | 56 | 216 | 9.0 | 14.0 | 0.00 | 0.00 | 0.00 | 44 | 1018.5 |
| 20260509195119 | 57 | 210 | 9.0 | 11.0 | 0.00 | 0.00 | 0.00 | 42 | 1018.5 |
| 20260509194618 | 55 | 240 | 3.0 | 7.0 | 0.00 | 0.00 | 0.00 | 40 | 1018.5 |
| 20260509194116 | 55 | 226 | 6.0 | 9.0 | 0.00 | 0.00 | 0.00 | 46 | 1018.7 |
| 20260509193612 | 57 | 298 | 9.0 | 12.0 | 0.00 | 0.00 | 0.00 | 45 | 1018.5 |
| 20260509193103 | 57 | 228 | 9.0 | 11.0 | 0.00 | 0.00 | 0.00 | 46 | 1018.7 |
| 20260509192559 | 56 | 275 | 6.0 | 7.0 | 0.00 | 0.00 | 0.00 | 43 | 1018.5 |
| 20260509192048 | 56 | 261 | 6.0 | 10.0 | 0.00 | 0.00 | 0.00 | 43 | 1018.7 |
| 20260509191548 | 53 | 294 | 5.0 | 7.0 | 0.00 | 0.00 | 0.00 | 45 | 1018.7 |
| 20260509191044 | 53 | 293 | 5.0 | 9.0 | 0.00 | 0.00 | 0.00 | 47 | 1018.8 |
| 20260509190541 | 54 | 290 | 11.0 | 15.0 | 0.00 | 0.00 | 0.00 | 46 | 1018.7 |
| 20260509190040 | 56 | 338 | 5.0 | 7.0 | 0.00 | 0.00 | 0.00 | 46 | 1018.7 |
| 20260509185537 | 55 | 213 | 4.0 | 12.0 | 0.00 | 0.00 | 0.00 | 46 | 1018.8 |
| 20260509185033 | 55 | 278 | 1.0 | 7.0 | 0.00 | 0.00 | 0.00 | 45 | 1018.8 |
| 20260509184531 | 55 | 290 | 5.0 | 10.0 | 0.00 | 0.00 | 0.00 | 46 | 1018.9 |
| 20260509184027 | 55 | 270 | 3.0 | 5.0 | 0.00 | 0.00 | 0.00 | 45 | 1018.8 |
| 20260509183522 | 53 | 270 | 3.0 | 5.0 | 0.00 | 0.00 | 0.00 | 49 | 1018.9 |
| 20260509183019 | 54 | 294 | 5.0 | 10.0 | 0.00 | 0.00 | 0.00 | 49 | 1018.8 |
| 20260509182515 | 52 | 17 | 2.0 | 7.0 | 0.00 | 0.00 | 0.00 | 47 | 1018.8 |
| 20260509182012 | 51 | 191 | 4.0 | 9.0 | 0.00 | 0.00 | 0.00 | 45 | 1018.8 |
| 20260509181511 | 52 | 90 | 3.0 | 6.0 | 0.00 | 0.00 | 0.00 | 46 | 1018.8 |
| 20260509181008 | 53 | 83 | 4.0 | 7.0 | 0.00 | 0.00 | 0.00 | 44 | 1018.8 |
| 20260509180502 | 54 | 26 | 2.0 | 4.0 | 0.00 | 0.00 | 0.00 | 48 | 1018.8 |
| 20260509180000 | 54 | 15 | 3.0 | 7.0 | 0.00 | 0.00 | 0.00 | 44 | 1018.8 |
| 20260509175456 | 54 | 82 | 1.0 | 3.0 | 0.00 | 0.00 | 0.00 | 46 | 1018.8 |
| 20260509174953 | 52 | 23 | 3.0 | 9.0 | 0.00 | 0.00 | 0.00 | 45 | 1018.8 |
| 20260509174449 | 53 | 349 | 4.0 | 4.0 | 0.00 | 0.00 | 0.00 | 47 | 1018.5 |
| 20260509173944 | 53 | 233 | 2.0 | 6.0 | 0.00 | 0.00 | 0.00 | 49 | 1018.7 |
| 20260509173439 | 53 | 270 | 5.0 | 8.0 | 0.00 | 0.00 | 0.00 | 44 | 1018.7 |
| 20260509172936 | 53 | 1 | 5.0 | 5.0 | 0.00 | 0.00 | 0.00 | 45 | 1018.8 |
| 20260509172433 | 52 | 212 | 3.0 | 9.0 | 0.00 | 0.00 | 0.00 | 45 | 1018.5 |
| 20260509171928 | 52 | 278 | 4.0 | 6.0 | 0.00 | 0.00 | 0.00 | 46 | 1018.7 |
| 20260509171424 | 52 | 281 | 3.0 | 7.0 | 0.00 | 0.00 | 0.00 | 45 | 1018.5 |
| 20260509170921 | 54 | 357 | 3.0 | 5.0 | 0.00 | 0.00 | 0.00 | 44 | 1018.5 |
| 20260509170417 | 53 | 293 | 0.0 | 6.0 | 0.00 | 0.00 | 0.00 | 43 | 1018.4 |
| 20260509165913 | 55 | 131 | 2.0 | 4.0 | 0.00 | 0.00 | 0.00 | 44 | 1018.4 |
| 20260509165407 | 54 | 274 | 2.0 | 7.0 | 0.00 | 0.00 | 0.00 | 44 | 1018.4 |
| 20260509164903 | 51 | 290 | 4.0 | 8.0 | 0.00 | 0.00 | 0.00 | 43 | 1018.4 |
| 20260509164359 | 51 | 107 | 2.0 | 3.0 | 0.00 | 0.00 | 0.00 | 49 | 1018.4 |
| 20260509163855 | 50 | 198 | 2.0 | 5.0 | 0.00 | 0.00 | 0.00 | 48 | 1018.7 |
| 20260509163352 | 50 | 353 | 2.0 | 4.0 | 0.00 | 0.00 | 0.00 | 50 | 1018.5 |
| 20260509162851 | 51 | 356 | 2.0 | 6.0 | 0.00 | 0.00 | 0.00 | 45 | 1018.4 |
| 20260509162344 | 54 | 297 | 1.0 | 3.0 | 0.00 | 0.00 | 0.00 | 47 | 1018.3 |
| 20260509161841 | 52 | 245 | 5.0 | 8.0 | 0.00 | 0.00 | 0.00 | 46 | 1018.3 |
| 20260509161337 | 53 | 218 | 3.0 | 5.0 | 0.00 | 0.00 | 0.00 | 47 | 1018.3 |
| 20260509160833 | 53 | 15 | 2.0 | 7.0 | 0.00 | 0.00 | 0.00 | 47 | 1018.4 |
| 20260509160329 | 52 | 245 | 2.0 | 7.0 | 0.00 | 0.00 | 0.00 | 49 | 1018.3 |
| 20260509155824 | 51 | 315 | 2.0 | 7.0 | 0.00 | 0.00 | 0.00 | 50 | 1018.1 |
| 20260509155321 | 53 | 290 | 4.0 | 10.0 | 0.00 | 0.00 | 0.00 | 48 | 1018.3 |
| 20260509154817 | 52 | 197 | 5.0 | 5.0 | 0.00 | 0.00 | 0.00 | 46 | 1018.3 |
| 20260509154313 | 53 | 303 | 5.0 | 7.0 | 0.00 | 0.00 | 0.00 | 50 | 1018.3 |
| 20260509153811 | 52 | 196 | 3.0 | 4.0 | 0.00 | 0.00 | 0.00 | 47 | 1018.1 |
| 20260509153307 | 52 | 151 | 3.0 | 6.0 | 0.00 | 0.00 | 0.00 | 48 | 1018.1 |
| 20260509152804 | 52 | 251 | 2.0 | 7.0 | 0.00 | 0.00 | 0.00 | 49 | 1017.9 |
| 20260509152300 | 51 | 324 | 3.0 | 7.0 | 0.00 | 0.00 | 0.00 | 47 | 1018.1 |
| 20260509151757 | 51 | 289 | 2.0 | 6.0 | 0.00 | 0.00 | 0.00 | 49 | 1017.7 |
| 20260509151253 | 51 | 274 | 2.0 | 8.0 | 0.00 | 0.00 | 0.00 | 51 | 1017.8 |
| 20260509150752 | 52 | 319 | 4.0 | 9.0 | 0.00 | 0.00 | 0.00 | 49 | 1017.7 |
| 20260509150250 | 52 | 346 | 0.0 | 3.0 | 0.00 | 0.00 | 0.00 | 51 | 1017.7 |
| 20260509145747 | 50 | 232 | 2.0 | 10.0 | 0.00 | 0.00 | 0.00 | 48 | 1017.3 |
| 20260509145246 | 53 | 77 | 1.0 | 4.0 | 0.00 | 0.00 | 0.00 | 47 | 1017.4 |
| 20260509144743 | 52 | 105 | 0.0 | 3.0 | 0.00 | 0.00 | 0.00 | 47 | 1017.6 |
| 20260509144240 | 51 | 222 | 3.0 | 5.0 | 0.00 | 0.00 | 0.00 | 45 | 1017.6 |
| 20260509143737 | 51 | 243 | 0.0 | 2.0 | 0.00 | 0.00 | 0.00 | 47 | 1017.3 |
| 20260509143234 | 51 | 235 | 2.0 | 4.0 | 0.00 | 0.00 | 0.00 | 46 | 1017.4 |
| 20260509142730 | 52 | 90 | 2.0 | 3.0 | 0.00 | 0.00 | 0.00 | 46 | 1017.4 |
| 20260509142226 | 51 | 69 | 1.0 | 3.0 | 0.00 | 0.00 | 0.00 | 52 | 1017.4 |
| 20260509141722 | 49 | 107 | 3.0 | 5.0 | 0.00 | 0.00 | 0.00 | 55 | 1017.3 |
| 20260509141220 | 48 | 99 | 3.0 | 5.0 | 0.00 | 0.00 | 0.00 | 59 | 1017.2 |
| 20260509140716 | 47 | 103 | 3.0 | 6.0 | 0.00 | 0.00 | 0.00 | 61 | 1017.2 |
| 20260509140214 | 46 | 86 | 3.0 | 5.0 | 0.00 | 0.00 | 0.00 | 62 | 1017.1 |
| 20260509135711 | 45 | 121 | 3.0 | 5.0 | 0.00 | 0.00 | 0.00 | 63 | 1017.1 |
| 20260509135209 | 45 | 121 | 3.0 | 6.0 | 0.00 | 0.00 | 0.00 | 65 | 1017.2 |
| 20260509134705 | 43 | 100 | 4.0 | 4.0 | 0.00 | 0.00 | 0.00 | 65 | 1017.0 |
| 20260509134203 | 43 | 72 | 3.0 | 5.0 | 0.00 | 0.00 | 0.00 | 65 | 1017.0 |
| 20260509133700 | 42 | 117 | 2.0 | 5.0 | 0.00 | 0.00 | 0.00 | 66 | 1017.0 |
| 20260509133157 | 42 | 82 | 2.0 | 5.0 | 0.00 | 0.00 | 0.00 | 66 | 1017.2 |
| 20260509132655 | 41 | 121 | 4.0 | 5.0 | 0.00 | 0.00 | 0.00 | 66 | 1016.8 |
| 20260509132153 | 41 | 334 | 0.0 | 7.0 | 0.00 | 0.00 | 0.00 | 65 | 1017.0 |
| 20260509131649 | 40 | 121 | 0.0 | 7.0 | 0.00 | 0.00 | 0.00 | 69 | 1016.7 |
| 20260509131146 | 38 | 133 | 3.0 | 8.0 | 0.00 | 0.00 | 0.00 | 71 | 1016.7 |
| 20260509130642 | 39 | 103 | 0.0 | 6.0 | 0.00 | 0.00 | 0.00 | 70 | 1016.8 |
| 20260509130138 | 38 | 157 | 0.0 | 5.0 | 0.00 | 0.00 | 0.00 | 71 | 1016.5 |
| 20260509125635 | 38 | 344 | 0.0 | 7.0 | 0.00 | 0.00 | 0.00 | 70 | 1016.7 |
| 20260509125132 | 37 | 81 | 4.0 | 8.0 | 0.00 | 0.00 | 0.00 | 72 | 1016.4 |
| 20260509124628 | 37 | 110 | 5.0 | 7.0 | 0.00 | 0.00 | 0.00 | 72 | 1016.2 |
| 20260509124125 | 37 | 90 | 0.0 | 5.0 | 0.00 | 0.00 | 0.00 | 72 | 1016.5 |
| 20260509123623 | 37 | 73 | 4.0 | 11.0 | 0.00 | 0.00 | 0.00 | 72 | 1016.2 |
| 20260509123120 | 37 | 95 | 4.0 | 8.0 | 0.00 | 0.00 | 0.00 | 72 | 1016.1 |
| 20260509122615 | 37 | 61 | 2.0 | 7.0 | 0.00 | 0.00 | 0.00 | 72 | 1016.1 |
| 20260509122113 | 37 | 99 | 6.0 | 6.0 | 0.00 | 0.00 | 0.00 | 72 | 1016.1 |
| 20260509121609 | 37 | 86 | 4.0 | 7.0 | 0.00 | 0.00 | 0.00 | 72 | 1015.9 |
| 20260509121107 | 37 | 57 | 3.0 | 8.0 | 0.00 | 0.00 | 0.00 | 71 | 1015.9 |
| 20260509120605 | 37 | 114 | 7.0 | 7.0 | 0.00 | 0.00 | 0.00 | 71 | 1016.1 |
| 20260509115600 | 37 | 107 | 6.0 | 7.0 | 0.00 | 0.00 | 0.00 | 71 | 1016.0 |
| 20260509115058 | 37 | 344 | 0.0 | 3.0 | 0.00 | 0.00 | 0.00 | 72 | 1015.9 |
| 20260509114556 | 37 | 84 | 1.0 | 7.0 | 0.00 | 0.00 | 0.00 | 72 | 1016.0 |
| 20260509114054 | 37 | 93 | 3.0 | 5.0 | 0.00 | 0.00 | 0.00 | 72 | 1015.7 |
| 20260509113552 | 37 | 77 | 3.0 | 6.0 | 0.00 | 0.00 | 0.00 | 71 | 1015.6 |
| 20260509113050 | 37 | 98 | 3.0 | 5.0 | 0.00 | 0.00 | 0.00 | 72 | 1015.7 |
| 20260509112546 | 38 | 355 | 0.0 | 4.0 | 0.00 | 0.00 | 0.00 | 70 | 1015.7 |
| 20260509112043 | 38 | 12 | 1.0 | 4.0 | 0.00 | 0.00 | 0.00 | 70 | 1015.6 |
| 20260509111540 | 38 | 328 | 0.0 | 6.0 | 0.00 | 0.00 | 0.00 | 69 | 1015.6 |
| 20260509111037 | 38 | 86 | 2.0 | 3.0 | 0.00 | 0.00 | 0.00 | 70 | 1015.7 |
| 20260509110534 | 38 | 49 | 0.0 | 3.0 | 0.00 | 0.00 | 0.00 | 70 | 1015.6 |
| 20260509110031 | 38 | 115 | 0.0 | 2.0 | 0.00 | 0.00 | 0.00 | 69 | 1015.7 |
| 20260509105529 | 38 | 90 | 0.0 | 5.0 | 0.00 | 0.00 | 0.00 | 69 | 1015.5 |
| 20260509105026 | 38 | 96 | 0.0 | 3.0 | 0.00 | 0.00 | 0.00 | 70 | 1015.5 |
| 20260509104523 | 38 | 100 | 2.0 | 6.0 | 0.00 | 0.00 | 0.00 | 70 | 1015.3 |
| 20260509104020 | 38 | 352 | 0.0 | 7.0 | 0.00 | 0.00 | 0.00 | 70 | 1015.3 |
| 20260509103518 | 38 | 96 | 5.0 | 5.0 | 0.00 | 0.00 | 0.00 | 69 | 1015.4 |
| 20260509103016 | 38 | 74 | 0.0 | 5.0 | 0.00 | 0.00 | 0.00 | 69 | 1015.4 |
| 20260509102513 | 39 | 90 | 2.0 | 4.0 | 0.00 | 0.00 | 0.00 | 68 | 1015.1 |
| 20260509102009 | 39 | 90 | 5.0 | 8.0 | 0.00 | 0.00 | 0.00 | 68 | 1015.3 |
| 20260509101506 | 39 | 115 | 3.0 | 6.0 | 0.00 | 0.00 | 0.00 | 67 | 1015.3 |
| 20260509101003 | 39 | 94 | 0.0 | 3.0 | 0.00 | 0.00 | 0.00 | 66 | 1015.0 |
| 20260509100500 | 39 | 100 | 4.0 | 5.0 | 0.00 | 0.00 | 0.00 | 68 | 1014.9 |
| 20260509095957 | 38 | 105 | 2.0 | 3.0 | 0.00 | 0.00 | 0.00 | 67 | 1014.9 |
| 20260509095453 | 39 | 98 | 2.0 | 5.0 | 0.00 | 0.00 | 0.00 | 65 | 1014.9 |
| 20260509094951 | 40 | 29 | 1.0 | 2.0 | 0.00 | 0.00 | 0.00 | 64 | 1014.8 |
| 20260509094447 | 41 | 29 | 0.0 | 3.0 | 0.00 | 0.00 | 0.00 | 62 | 1015.0 |
| 20260509093945 | 41 | 262 | 1.0 | 2.0 | 0.00 | 0.00 | 0.00 | 60 | 1014.9 |
| 20260509093442 | 41 | 123 | 0.0 | 2.0 | 0.00 | 0.00 | 0.00 | 59 | 1014.7 |
| 20260509092940 | 40 | 108 | 3.0 | 5.0 | 0.00 | 0.00 | 0.00 | 65 | 1014.7 |
| 20260509092438 | 40 | 341 | 2.0 | 5.0 | 0.00 | 0.00 | 0.00 | 65 | 1014.7 |
| 20260509091936 | 41 | 94 | 4.0 | 7.0 | 0.00 | 0.00 | 0.00 | 63 | 1014.5 |
| 20260509091433 | 42 | 297 | 0.0 | 3.0 | 0.00 | 0.00 | 0.00 | 59 | 1014.5 |
| 20260509090930 | 42 | 55 | 3.0 | 5.0 | 0.00 | 0.00 | 0.00 | 60 | 1014.3 |
| 20260509090427 | 42 | 121 | 6.0 | 8.0 | 0.00 | 0.00 | 0.00 | 61 | 1014.3 |
| 20260509085925 | 42 | 97 | 5.0 | 6.0 | 0.00 | 0.00 | 0.00 | 59 | 1014.1 |
| 20260509085421 | 43 | 90 | 4.0 | 8.0 | 0.00 | 0.00 | 0.00 | 60 | 1014.1 |
| 20260509084918 | 44 | 85 | 3.0 | 7.0 | 0.00 | 0.00 | 0.00 | 58 | 1014.2 |
| 20260509084415 | 44 | 109 | 3.0 | 7.0 | 0.00 | 0.00 | 0.00 | 57 | 1013.8 |
| 20260509083912 | 44 | 107 | 4.0 | 7.0 | 0.00 | 0.00 | 0.00 | 58 | 1013.9 |
| 20260509083409 | 43 | 82 | 0.0 | 5.0 | 0.00 | 0.00 | 0.00 | 58 | 1013.8 |
| 20260509082906 | 43 | 75 | 5.0 | 7.0 | 0.00 | 0.00 | 0.00 | 59 | 1013.8 |
| 20260509082403 | 43 | 145 | 1.0 | 4.0 | 0.00 | 0.00 | 0.00 | 58 | 1013.8 |
| 20260509081900 | 44 | 57 | 2.0 | 3.0 | 0.00 | 0.00 | 0.00 | 57 | 1013.9 |
| 20260509081357 | 43 | 35 | 1.0 | 4.0 | 0.00 | 0.00 | 0.00 | 56 | 1013.9 |
| 20260509080855 | 42 | 127 | 2.0 | 3.0 | 0.00 | 0.00 | 0.00 | 58 | 1013.7 |
| 20260509080353 | 44 | 60 | 1.0 | 2.0 | 0.00 | 0.00 | 0.00 | 54 | 1013.7 |
| 20260509075851 | 44 | 90 | 3.0 | 3.0 | 0.00 | 0.00 | 0.00 | 52 | 1013.3 |
| 20260509075347 | 48 | 117 | 2.0 | 2.0 | 0.00 | 0.00 | 0.00 | 46 | 1013.7 |
| 20260509074845 | 49 | 95 | 3.0 | 5.0 | 0.00 | 0.00 | 0.00 | 42 | 1013.3 |
| 20260509074342 | 49 | 103 | 3.0 | 4.0 | 0.00 | 0.00 | 0.00 | 43 | 1013.3 |
| 20260509073838 | 50 | 160 | 3.0 | 5.0 | 0.00 | 0.00 | 0.00 | 43 | 1013.2 |
| 20260509073335 | 50 | 152 | 4.0 | 6.0 | 0.00 | 0.00 | 0.00 | 43 | 1013.1 |
| 20260509072831 | 50 | 156 | 4.0 | 7.0 | 0.00 | 0.00 | 0.00 | 42 | 1013.0 |
| 20260509072328 | 50 | 144 | 5.0 | 8.0 | 0.00 | 0.00 | 0.00 | 42 | 1013.0 |
| 20260509071825 | 50 | 147 | 5.0 | 7.0 | 0.00 | 0.00 | 0.00 | 43 | 1013.0 |
| 20260509071322 | 50 | 154 | 5.0 | 7.0 | 0.00 | 0.00 | 0.00 | 42 | 1013.1 |
| 20260509070819 | 50 | 134 | 5.0 | 6.0 | 0.00 | 0.00 | 0.00 | 42 | 1013.0 |
| 20260509070315 | 50 | 159 | 7.0 | 7.0 | 0.00 | 0.00 | 0.00 | 42 | 1012.7 |
| 20260509065812 | 51 | 148 | 6.0 | 11.0 | 0.00 | 0.00 | 0.00 | 41 | 1013.0 |
| 20260509065308 | 51 | 170 | 2.0 | 10.0 | 0.00 | 0.00 | 0.00 | 40 | 1012.7 |
| 20260509064804 | 51 | 160 | 5.0 | 12.0 | 0.00 | 0.00 | 0.00 | 41 | 1013.1 |
| 20260509064301 | 52 | 149 | 10.0 | 11.0 | 0.00 | 0.00 | 0.00 | 39 | 1013.1 |
| 20260509063759 | 52 | 147 | 6.0 | 7.0 | 0.00 | 0.00 | 0.00 | 40 | 1013.1 |
| 20260509063255 | 51 | 105 | 4.0 | 5.0 | 0.00 | 0.00 | 0.00 | 40 | 1013.0 |
| 20260509062753 | 51 | 134 | 5.0 | 5.0 | 0.00 | 0.00 | 0.00 | 41 | 1013.1 |
| 20260509062250 | 53 | 133 | 5.0 | 6.0 | 0.00 | 0.00 | 0.00 | 38 | 1013.3 |
| 20260509061747 | 52 | 141 | 4.0 | 5.0 | 0.00 | 0.00 | 0.00 | 39 | 1013.1 |
| 20260509061245 | 53 | 157 | 4.0 | 5.0 | 0.00 | 0.00 | 0.00 | 39 | 1013.1 |
| 20260509060741 | 53 | 185 | 3.0 | 4.0 | 0.00 | 0.00 | 0.00 | 38 | 1013.3 |
| 20260509060238 | 53 | 150 | 6.0 | 9.0 | 0.00 | 0.00 | 0.00 | 38 | 1013.2 |
| 20260509055734 | 53 | 40 | 2.0 | 2.0 | 0.00 | 0.00 | 0.00 | 38 | 1013.0 |
| 20260509055230 | 53 | 95 | 2.0 | 4.0 | 0.00 | 0.00 | 0.00 | 38 | 1012.8 |
| 20260509054726 | 54 | 149 | 7.0 | 14.0 | 0.00 | 0.00 | 0.00 | 37 | 1012.8 |
| 20260509054223 | 55 | 148 | 11.0 | 17.0 | 0.00 | 0.00 | 0.00 | 37 | 1012.7 |
| 20260509053722 | 55 | 147 | 9.0 | 20.0 | 0.00 | 0.00 | 0.00 | 37 | 1012.4 |
| 20260509053218 | 55 | 152 | 10.0 | 18.0 | 0.00 | 0.00 | 0.00 | 39 | 1012.5 |
| 20260509052716 | 55 | 176 | 2.0 | 13.0 | 0.00 | 0.00 | 0.00 | 39 | 1012.6 |
| 20260509052214 | 55 | 206 | 10.0 | 11.0 | 0.00 | 0.00 | 0.00 | 40 | 1012.6 |
| 20260509051711 | 55 | 148 | 11.0 | 14.0 | 0.00 | 0.00 | 0.00 | 40 | 1012.6 |
| 20260509051209 | 55 | 146 | 13.0 | 13.0 | 0.00 | 0.00 | 0.00 | 40 | 1012.7 |
| 20260509050706 | 56 | 143 | 9.0 | 11.0 | 0.00 | 0.00 | 0.00 | 40 | 1012.6 |
| 20260509050202 | 56 | 161 | 6.0 | 15.0 | 0.00 | 0.00 | 0.00 | 40 | 1012.4 |
| 20260509045700 | 56 | 154 | 12.0 | 15.0 | 0.00 | 0.00 | 0.00 | 41 | 1012.5 |
| 20260509045156 | 56 | 145 | 7.0 | 13.0 | 0.00 | 0.00 | 0.00 | 42 | 1012.5 |
| 20260509044654 | 56 | 173 | 6.0 | 13.0 | 0.00 | 0.00 | 0.00 | 41 | 1012.4 |
| 20260509044151 | 56 | 146 | 10.0 | 12.0 | 0.00 | 0.00 | 0.00 | 42 | 1012.7 |
| 20260509043647 | 56 | 166 | 4.0 | 12.0 | 0.00 | 0.00 | 0.00 | 43 | 1012.5 |
| 20260509043143 | 56 | 118 | 5.0 | 11.0 | 0.00 | 0.00 | 0.00 | 43 | 1012.5 |
| 20260509042640 | 56 | 154 | 5.0 | 11.0 | 0.00 | 0.00 | 0.00 | 43 | 1012.7 |
| 20260509042136 | 56 | 153 | 7.0 | 14.0 | 0.00 | 0.00 | 0.00 | 43 | 1012.8 |
| 20260509041632 | 56 | 168 | 3.0 | 8.0 | 0.00 | 0.00 | 0.00 | 45 | 1012.7 |
| 20260509041130 | 56 | 151 | 6.0 | 11.0 | 0.00 | 0.00 | 0.00 | 45 | 1013.0 |
| 20260509040629 | 56 | 156 | 4.0 | 10.0 | 0.00 | 0.00 | 0.00 | 46 | 1013.0 |
| 20260509040125 | 56 | 158 | 4.0 | 8.0 | 0.00 | 0.00 | 0.00 | 48 | 1013.0 |
| 20260509035622 | 56 | 168 | 6.0 | 9.0 | 0.00 | 0.00 | 0.00 | 49 | 1013.0 |
| 20260509035118 | 56 | 157 | 5.0 | 11.0 | 0.00 | 0.00 | 0.00 | 49 | 1013.3 |
| 20260509034616 | 56 | 204 | 7.0 | 7.0 | 0.00 | 0.00 | 0.00 | 50 | 1013.2 |
| 20260509034113 | 56 | 203 | 10.0 | 10.0 | 0.00 | 0.00 | 0.00 | 51 | 1013.3 |
| 20260509033610 | 54 | 143 | 4.0 | 9.0 | 0.00 | 0.00 | 0.00 | 54 | 1013.2 |
| 20260509033107 | 53 | 90 | 3.0 | 5.0 | 0.00 | 0.00 | 0.00 | 56 | 1013.2 |
| 20260509032604 | 53 | 109 | 3.0 | 5.0 | 0.00 | 0.00 | 0.00 | 58 | 1013.1 |
| 20260509032101 | 53 | 108 | 4.0 | 6.0 | 0.00 | 0.00 | 0.00 | 57 | 1013.1 |
| 20260509031559 | 53 | 82 | 4.0 | 7.0 | 0.00 | 0.00 | 0.00 | 58 | 1013.1 |
| 20260509031056 | 53 | 78 | 2.0 | 9.0 | 0.00 | 0.00 | 0.00 | 58 | 1013.0 |
| 20260509030554 | 54 | 78 | 3.0 | 9.0 | 0.00 | 0.00 | 0.00 | 57 | 1013.0 |
| 20260509030051 | 54 | 88 | 4.0 | 8.0 | 0.00 | 0.00 | 0.00 | 57 | 1013.0 |
| 20260509025547 | 54 | 106 | 7.0 | 8.0 | 0.00 | 0.00 | 0.00 | 58 | 1013.0 |
| 20260509025042 | 53 | 127 | 5.0 | 6.0 | 0.00 | 0.00 | 0.00 | 57 | 1012.8 |
| 20260509024539 | 53 | 112 | 2.0 | 4.0 | 0.00 | 0.00 | 0.00 | 60 | 1013.0 |
| 20260509024035 | 53 | 97 | 5.0 | 5.0 | 0.00 | 0.00 | 0.00 | 60 | 1013.0 |
| 20260509023533 | 53 | 95 | 3.0 | 5.0 | 0.00 | 0.00 | 0.00 | 58 | 1013.0 |
| 20260509023029 | 53 | 119 | 3.0 | 5.0 | 0.00 | 0.00 | 0.00 | 62 | 1013.1 |
| 20260509022526 | 52 | 90 | 5.0 | 6.0 | 0.00 | 0.00 | 0.00 | 64 | 1013.0 |
| 20260509022024 | 53 | 93 | 4.0 | 4.0 | 0.00 | 0.00 | 0.00 | 63 | 1013.0 |
| 20260509021521 | 55 | 90 | 3.0 | 4.0 | 0.00 | 0.00 | 0.00 | 59 | 1013.1 |
| 20260509021017 | 56 | 90 | 4.0 | 4.0 | 0.00 | 0.00 | 0.00 | 58 | 1013.1 |
| 20260509020516 | 57 | 120 | 1.0 | 3.0 | 0.00 | 0.00 | 0.00 | 50 | 1013.1 |
| 20260509020012 | 58 | 110 | 2.0 | 3.0 | 0.00 | 0.00 | 0.00 | 50 | 1013.0 |
| 20260509015511 | 59 | 151 | 1.0 | 2.0 | 0.00 | 0.00 | 0.00 | 49 | 1013.1 |
| 20260509015008 | 59 | 154 | 1.0 | 2.0 | 0.00 | 0.00 | 0.00 | 47 | 1013.2 |
| 20260509014504 | 59 | 210 | 4.0 | 4.0 | 0.00 | 0.00 | 0.00 | 47 | 1013.1 |
| 20260509014001 | 60 | 194 | 0.0 | 2.0 | 0.00 | 0.00 | 0.00 | 47 | 1013.2 |
| 20260509013458 | 60 | 249 | 0.0 | 0.0 | 0.00 | 0.00 | 0.00 | 48 | 1013.2 |
| 20260509012953 | 60 | 281 | 0.0 | 2.0 | 0.00 | 0.00 | 0.00 | 49 | 1013.3 |
| 20260509012449 | 60 | 303 | 0.0 | 3.0 | 0.00 | 0.00 | 0.00 | 48 | 1013.3 |
| 20260509011947 | 61 | 246 | 0.0 | 2.0 | 0.00 | 0.00 | 0.00 | 47 | 1013.3 |
| 20260509011444 | 62 | 294 | 0.0 | 2.0 | 0.00 | 0.00 | 0.00 | 45 | 1013.3 |
| 20260509010942 | 62 | 328 | 2.0 | 2.0 | 0.00 | 0.00 | 0.00 | 43 | 1013.4 |
| 20260509010439 | 62 | 282 | 2.0 | 3.0 | 0.00 | 0.00 | 0.00 | 42 | 1013.3 |
| 20260509005936 | 62 | 249 | 1.0 | 2.0 | 0.00 | 0.00 | 0.00 | 42 | 1013.6 |
| 20260509005434 | 62 | 270 | 1.0 | 1.0 | 0.00 | 0.00 | 0.00 | 44 | 1013.6 |
| 20260509004934 | 62 | 249 | 0.0 | 1.0 | 0.00 | 0.00 | 0.00 | 44 | 1013.6 |
| 20260509004431 | 61 | 195 | 0.0 | 0.0 | 0.00 | 0.00 | 0.00 | 42 | 1013.6 |
| 20260509003929 | 61 | 195 | 0.0 | 0.0 | 0.00 | 0.00 | 0.00 | 46 | 1013.6 |
| 20260509003426 | 61 | 237 | 2.0 | 4.0 | 0.00 | 0.00 | 0.00 | 44 | 1013.8 |
| 20260509002923 | 62 | 250 | 2.0 | 3.0 | 0.00 | 0.00 | 0.00 | 43 | 1013.9 |
| 20260509002421 | 62 | 270 | 2.0 | 2.0 | 0.00 | 0.00 | 0.00 | 45 | 1013.9 |
| 20260509001918 | 62 | 274 | 3.0 | 6.0 | 0.00 | 0.00 | 0.00 | 41 | 1014.1 |
| 20260509001414 | 62 | 267 | 3.0 | 6.0 | 0.00 | 0.00 | 0.00 | 43 | 1014.1 |
| 20260509000911 | 63 | 284 | 5.0 | 5.0 | 0.00 | 0.00 | 0.00 | 44 | 1013.8 |
| 20260509000410 | 62 | 290 | 3.0 | 5.0 | 0.00 | 0.00 | 0.00 | 44 | 1014.1 |
| 20260508235905 | 62 | 252 | 5.0 | 9.0 | 0.00 | 0.00 | 0.00 | 43 | 1014.2 |
| 20260508235402 | 62 | 270 | 3.0 | 8.0 | 0.00 | 0.00 | 0.00 | 45 | 1014.1 |
| 20260508234859 | 62 | 244 | 8.0 | 9.0 | 0.00 | 0.00 | 0.00 | 44 | 1014.1 |
| 20260508234355 | 61 | 297 | 4.0 | 12.0 | 0.00 | 0.00 | 0.00 | 43 | 1014.2 |
| 20260508233854 | 62 | 277 | 5.0 | 11.0 | 0.00 | 0.00 | 0.00 | 42 | 1014.2 |
| 20260508233353 | 63 | 290 | 5.0 | 7.0 | 0.00 | 0.00 | 0.00 | 45 | 1013.9 |
| 20260508232850 | 62 | 221 | 2.0 | 4.0 | 0.00 | 0.00 | 0.00 | 45 | 1014.2 |
| 20260508232346 | 62 | 250 | 3.0 | 5.0 | 0.00 | 0.00 | 0.00 | 47 | 1014.2 |
| 20260508231844 | 61 | 323 | 2.0 | 9.0 | 0.00 | 0.00 | 0.00 | 47 | 1014.1 |
| 20260508231340 | 61 | 270 | 3.0 | 10.0 | 0.00 | 0.00 | 0.00 | 47 | 1014.1 |
| 20260508230837 | 60 | 263 | 4.0 | 6.0 | 0.00 | 0.00 | 0.00 | 46 | 1014.3 |
| 20260508230333 | 61 | 238 | 3.0 | 9.0 | 0.00 | 0.00 | 0.00 | 47 | 1014.3 |
| 20260508225832 | 61 | 247 | 4.0 | 10.0 | 0.00 | 0.00 | 0.00 | 47 | 1014.3 |
| 20260508225328 | 61 | 265 | 0.0 | 7.0 | 0.00 | 0.00 | 0.00 | 48 | 1014.3 |
| 20260508224826 | 60 | 234 | 4.0 | 10.0 | 0.00 | 0.00 | 0.00 | 46 | 1014.3 |
| 20260508224323 | 61 | 285 | 5.0 | 9.0 | 0.00 | 0.00 | 0.00 | 47 | 1014.3 |
| 20260508223820 | 61 | 334 | 2.0 | 9.0 | 0.00 | 0.00 | 0.00 | 45 | 1014.4 |
| 20260508223318 | 61 | 286 | 5.0 | 9.0 | 0.00 | 0.00 | 0.00 | 46 | 1014.2 |
| 20260508222815 | 61 | 302 | 4.0 | 9.0 | 0.00 | 0.00 | 0.00 | 46 | 1014.3 |
| 20260508222312 | 61 | 309 | 8.0 | 10.0 | 0.00 | 0.00 | 0.00 | 44 | 1014.4 |
| 20260508221809 | 61 | 289 | 4.0 | 12.0 | 0.00 | 0.00 | 0.00 | 44 | 1014.5 |